Date String (YYYY-MM-DD hh:mm:ss) UTC,Instrument flags,Ambient pressure (hPa),Sample flow (lpm),Bypass flow (lpm),Sample temperature (°C),Ambient temperature (°C),ASC tube jacket temperature (°C),LED temperature (°C),Box temperature (°C),Sample RH (%),Span deviation,Mass concentration (μg/m³),Mass concentration (μg/m³),Mass concentration (μg/m³)
DateTimeUTC,F1_M11,P_M11,Q1_M11,Q2_M11,T1_M11,T2_M11,T3_M11,T4_M11,T5_M11,U1_M11,ZSPAN_M11,X2_M11,X0_M11,X1_M11
2023-05-23 00:00:00,,0829.1,5.00,0.00,29.4,27.0,00.0,37.7,31.0,20.0,0003.5,0038.19,0052.70,0036.36
2023-05-23 00:01:00,,0829.0,4.99,0.00,29.4,27.3,00.0,37.7,31.1,19.5,0003.5,0038.11,0053.66,0036.30
2023-05-23 00:02:00,,0829.1,4.99,0.00,29.4,27.5,00.0,37.7,31.1,19.0,0003.5,0038.07,0053.73,0036.29
2023-05-23 00:03:00,,0829.0,5.00,0.00,29.4,27.7,00.0,37.7,31.2,19.4,0003.5,0038.08,0053.46,0036.35
2023-05-23 00:04:00,,0829.1,5.01,0.00,29.5,27.9,00.0,37.7,31.2,19.5,0003.5,0038.15,0053.67,0036.42
2023-05-23 00:05:00,,0829.1,5.00,0.00,29.5,28.0,00.0,37.8,31.2,19.7,0003.5,0038.17,0053.75,0036.45
2023-05-23 00:06:00,,0829.0,5.00,0.00,29.5,28.1,00.0,37.8,31.3,20.0,0003.5,0038.12,0053.57,0036.47
2023-05-23 00:07:00,,0829.0,4.99,0.00,29.6,28.2,00.0,37.8,31.3,19.7,0003.6,0038.11,0053.22,0036.49
2023-05-23 00:08:00,,0829.0,5.00,0.00,29.6,28.3,00.0,37.8,31.4,19.1,0003.6,0038.19,0054.47,0036.52
2023-05-23 00:09:00,,0829.0,5.00,0.00,29.6,28.4,00.0,37.8,31.4,19.1,0003.5,0038.20,0055.35,0036.54
2023-05-23 00:10:00,,0829.0,4.99,0.00,29.6,27.3,00.0,37.8,31.3,19.6,0003.6,0038.22,0055.23,0036.60
2023-05-23 00:11:00,,0829.0,5.00,0.00,29.6,26.0,00.0,37.7,31.1,20.4,0003.5,0038.24,0055.19,0036.64
2023-05-23 00:12:00,,0829.0,5.01,0.00,29.5,25.9,00.0,37.7,31.0,20.5,0003.5,0038.26,0054.71,0036.66
2023-05-23 00:13:00,,0829.0,5.01,0.00,29.5,26.1,00.0,37.7,30.9,20.9,0003.5,0038.23,0054.62,0036.64
2023-05-23 00:14:00,,0829.0,5.00,0.00,29.4,26.4,00.0,37.7,30.9,20.7,0003.5,0038.23,0054.87,0036.59
2023-05-23 00:15:00,,0829.0,5.00,0.00,29.4,26.7,00.0,37.7,31.0,21.2,0003.5,0038.25,0054.86,0036.61
2023-05-23 00:16:00,,0829.0,5.00,0.00,29.4,27.0,00.0,37.7,31.0,20.7,0003.5,0038.21,0054.81,0036.60
2023-05-23 00:17:00,,0829.1,4.99,0.00,29.4,27.3,00.0,37.7,31.1,20.6,0003.5,0038.20,0054.73,0036.56
2023-05-23 00:18:00,,0829.1,4.99,0.00,29.4,27.5,00.0,37.7,31.1,20.7,0003.5,0038.20,0055.14,0036.53
2023-05-23 00:19:00,,0829.1,5.00,0.00,29.5,27.7,00.0,37.8,31.2,20.7,0003.5,0038.12,0055.44,0036.54
2023-05-23 00:20:00,,0829.1,5.01,0.00,29.5,27.9,00.0,37.8,31.2,20.6,0003.5,0038.17,0054.41,0036.55
2023-05-23 00:21:00,,0829.1,5.00,0.00,29.5,28.0,00.0,37.8,31.2,20.3,0003.4,0038.19,0054.53,0036.53
2023-05-23 00:22:00,,0829.1,5.00,0.00,29.5,28.1,00.0,37.8,31.3,19.9,0003.5,0038.21,0054.63,0036.51
2023-05-23 00:23:00,,0829.1,5.00,0.00,29.6,28.2,00.0,37.8,31.3,19.9,0003.6,0038.30,0054.28,0036.56
2023-05-23 00:24:00,,0829.1,4.99,0.00,29.6,28.3,00.0,37.8,31.4,19.8,0003.6,0038.41,0054.04,0036.66
2023-05-23 00:25:00,,0829.1,5.00,0.00,29.6,28.4,00.0,37.9,31.4,19.4,0003.6,0038.46,0053.82,0036.71
2023-05-23 00:26:00,,0829.1,5.00,0.00,29.7,27.3,00.0,37.8,31.3,19.2,0003.6,0038.50,0054.15,0036.71
2023-05-23 00:27:00,,0829.0,5.00,0.00,29.6,26.0,00.0,37.8,31.1,18.9,0003.6,0038.67,0054.58,0036.81
2023-05-23 00:28:00,,0829.0,5.00,0.00,29.5,25.8,00.0,37.7,31.0,19.2,0003.7,0038.86,0055.90,0036.94
2023-05-23 00:29:00,,0829.0,5.01,0.00,29.5,26.0,00.0,37.7,30.9,19.0,0003.6,0039.09,0056.09,0037.09
2023-05-23 00:30:00,,0829.0,5.00,0.00,29.4,26.4,00.0,37.7,30.9,19.0,0003.5,0039.23,0055.17,0037.16
2023-05-23 00:31:00,,0829.0,4.99,0.00,29.4,26.7,00.0,37.7,31.0,19.3,0003.5,0039.29,0055.31,0037.23
2023-05-23 00:32:00,,0829.1,4.99,0.00,29.4,27.0,00.0,37.7,31.0,19.4,0003.6,0039.37,0055.51,0037.33
2023-05-23 00:33:00,,0829.1,5.01,0.00,29.4,27.2,00.0,37.7,31.1,19.4,0003.6,0039.47,0055.68,0037.43
2023-05-23 00:34:00,,0829.1,5.00,0.00,29.4,27.5,00.0,37.8,31.1,19.4,0003.6,0039.58,0057.12,0037.50
2023-05-23 00:35:00,,0829.1,4.99,0.00,29.5,27.7,00.0,37.8,31.2,19.7,0003.5,0039.65,0057.24,0037.54
2023-05-23 00:36:00,,0829.1,5.00,0.00,29.5,27.8,00.0,37.8,31.2,20.3,0003.5,0039.69,0057.23,0037.59
2023-05-23 00:37:00,,0829.1,5.00,0.00,29.5,28.0,00.0,37.8,31.2,19.7,0003.5,0039.69,0056.67,0037.61
2023-05-23 00:38:00,,0829.1,5.00,0.00,29.5,28.1,00.0,37.8,31.3,19.5,0003.5,0039.56,0056.35,0037.55
2023-05-23 00:39:00,,0829.1,5.00,0.00,29.6,28.2,00.0,37.8,31.3,20.3,0003.5,0039.55,0055.80,0037.52
2023-05-23 00:40:00,,0829.1,5.01,0.00,29.6,28.3,00.0,37.9,31.4,20.3,0003.5,0039.48,0055.51,0037.47
2023-05-23 00:41:00,,0829.1,5.00,0.00,29.6,28.0,00.0,37.9,31.3,19.4,0003.6,0039.46,0055.21,0037.49
2023-05-23 00:42:00,,0829.1,4.99,0.00,29.6,26.4,00.0,37.8,31.1,19.1,0003.6,0039.46,0055.98,0037.51
2023-05-23 00:43:00,,0829.1,5.01,0.00,29.6,25.8,00.0,37.7,31.1,19.5,0003.6,0039.44,0056.38,0037.49
2023-05-23 00:44:00,,0829.1,5.01,0.00,29.5,26.0,00.0,37.7,30.9,19.9,0003.6,0039.43,0056.56,0037.50
2023-05-23 00:45:00,,0829.1,5.00,0.00,29.4,26.2,00.0,37.7,30.9,20.4,0003.6,0039.40,0055.58,0037.53
2023-05-23 00:46:00,,0829.1,5.00,0.00,29.4,26.6,00.0,37.7,31.0,19.4,0003.6,0039.47,0055.57,0037.60
2023-05-23 00:47:00,,0829.1,5.00,0.00,29.4,26.9,00.0,37.7,31.0,19.7,0003.7,0039.54,0057.18,0037.67
2023-05-23 00:48:00,,0829.0,5.00,0.00,29.4,27.1,00.0,37.7,31.1,19.7,0003.6,0039.63,0058.23,0037.72
2023-05-23 00:49:00,,0829.1,5.01,0.00,29.4,27.4,00.0,37.8,31.1,19.2,0003.6,0039.82,0058.63,0037.83
2023-05-23 00:50:00,,0829.1,5.01,0.00,29.5,27.6,00.0,37.8,31.2,20.1,0003.6,0039.93,0058.53,0037.96
2023-05-23 00:51:00,,0829.1,4.98,0.00,29.5,27.8,00.0,37.8,31.2,20.1,0003.5,0039.98,0059.25,0038.03
2023-05-23 00:52:00,,0829.1,5.00,0.00,29.5,27.9,00.0,37.8,31.2,20.0,0003.5,0040.00,0059.56,0038.04
2023-05-23 00:53:00,,0829.1,5.01,0.00,29.5,28.0,00.0,37.8,31.3,19.5,0003.5,0039.97,0059.50,0038.04
2023-05-23 00:54:00,,0829.1,5.00,0.00,29.6,28.2,00.0,37.8,31.3,19.7,0003.5,0040.14,0060.29,0038.13
2023-05-23 00:55:00,,0829.1,4.99,0.00,29.6,28.3,00.0,37.8,31.3,19.5,0003.5,0040.15,0060.16,0038.14
2023-05-23 00:56:00,,0829.1,4.99,0.00,29.6,28.3,00.0,37.9,31.4,19.2,0003.5,0040.11,0060.65,0038.14
2023-05-23 00:57:00,,0829.1,5.01,0.00,29.7,28.4,00.0,37.9,31.4,19.4,0003.4,0040.07,0060.77,0038.14
2023-05-23 00:58:00,,0829.2,5.00,0.00,29.7,27.2,00.0,37.8,31.3,19.4,0003.4,0040.02,0060.41,0038.10
2023-05-23 00:59:00,,0829.1,5.00,0.00,29.6,25.8,00.0,37.8,31.1,19.3,0003.4,0040.04,0059.67,0038.14
